Weather History for Martinsburg, WV

Change the Weather History Date:

Saturday, November 30, 2013

  Actual Average Record
Temperature  
Mean Temperature 26 °F 39 °F  
Max Temperature 34 °F 48 °F 76 °F (1927)
Min Temperature 17 °F 30 °F 7 °F (1930)
Degree Days  
Heating Degree Days 39 26  
Month to date heating degree days 694 624  
Since 1 July heating degree days 1091 1070  
Cooling Degree Days 0 0  
Month to date cooling degree days 0 0  
Year to date cooling degree days 1057 895  
Moisture  
Dew Point 17 °F    
Average Humidity 68    
Maximum Humidity 84    
Minimum Humidity 51    
Precipitation  
Precipitation 0.00 in 0.11 in 0.75 in (1942)
Month to date precipitation 2.06 3.13  
Year to date precipitation 31.16 35.99  
Sea Level Pressure  
Sea Level Pressure 30.59 in    
Wind  
Wind Speed 2 mph (SSE)    
Max Wind Speed 10 mph    
Max Gust Speed 29 mph    
Visibility 9 miles    
Events      
T = Trace of Precipitation, MM = Missing Value Source: NWS Daily Summary

Daily Weather History Graph

Daily Weather History Graph

Search for Another Location

Airport:

Trip Planner

Search our weather history database for the weather conditions in past years. The results will help you decide how hot, cold, wet, or windy it might be!

Date:

Astronomy

Nov. 30, 2013 Rise Set
Actual Time 7:12 AM EST 4:49 PM EST
Civil Twilight 6:42 AM EST 5:18 PM EST
Nautical Twilight 6:09 AM EST 5:52 PM EST
Astronomical Twilight 5:36 AM EST 6:24 PM EST
Moon 4:21 AM EST (11/30) 3:11 PM EST (11/30)
Length of Visible Light 10h 36m
Length of Day
9h 36m
Waning Crescent, 7% of the Moon is Illuminated
Nov 30
Waning Crescent
Dec 2
New
Dec 9
First Quarter
Dec 17
Full
Dec 25
Last Quarter

Hourly Weather History & Observations

Time (EST) Temp. Windchill Dew Point Humidity Pressure Visibility Wind Dir Wind Speed Gust Speed Precip Events Conditions
12:53 AM 24.1 °F 19.7 °F 18.0 °F 77% 30.72 in 9.0 mi North 3.5 mph - N/A   Clear
1:53 AM 24.1 °F - 17.1 °F 75% 30.73 in 8.0 mi Calm Calm - N/A   Clear
2:53 AM 23.0 °F - 16.0 °F 74% 30.73 in 8.0 mi Calm Calm - N/A   Clear
3:53 AM 19.0 °F - 14.0 °F 81% 30.72 in 6.0 mi Calm Calm - N/A   Haze
4:53 AM 18.0 °F - 14.0 °F 84% 30.71 in 6.0 mi Calm Calm - N/A   Clear
5:53 AM 18.0 °F - 12.9 °F 81% 30.72 in 6.0 mi Calm Calm - N/A   Haze
6:53 AM 18.0 °F - 12.9 °F 81% 30.72 in 7.0 mi Calm Calm - N/A   Clear
7:53 AM 19.9 °F - 16.0 °F 85% 30.72 in 6.0 mi Calm Calm - N/A   Clear
8:53 AM 25.0 °F - 19.0 °F 78% 30.71 in 8.0 mi Calm Calm - N/A   Clear
9:53 AM 28.0 °F 24.2 °F 19.0 °F 69% 30.70 in 10.0 mi Variable 3.5 mph - N/A   Clear
10:53 AM 30.9 °F 27.5 °F 19.9 °F 64% 30.68 in 10.0 mi Variable 3.5 mph - N/A   Clear
11:53 AM 33.1 °F 26.9 °F 18.0 °F 54% 30.63 in 10.0 mi SSW 6.9 mph - N/A   Clear
12:53 PM 34.0 °F 29.8 °F 17.1 °F 50% 30.60 in 10.0 mi South 4.6 mph - N/A   Clear
1:53 PM 34.0 °F 28.0 °F 18.0 °F 52% 30.57 in 10.0 mi SE 6.9 mph - N/A   Clear
2:53 PM 34.0 °F 28.0 °F 18.0 °F 52% 30.53 in 10.0 mi SE 6.9 mph - N/A   Clear
3:53 PM 34.0 °F 27.2 °F 19.0 °F 54% 30.51 in 10.0 mi SSE 8.1 mph - N/A   Clear
4:53 PM 33.1 °F - 18.0 °F 54% 30.49 in 10.0 mi Calm Calm - N/A   Clear
5:53 PM 32.0 °F - 17.1 °F 54% 30.48 in 10.0 mi Calm Calm - N/A   Clear
6:53 PM 30.0 °F - 18.0 °F 61% 30.46 in 10.0 mi Calm Calm - N/A   Clear
7:53 PM 28.9 °F 25.2 °F 18.0 °F 64% 30.45 in 10.0 mi NNW 3.5 mph - N/A   Clear
8:53 PM 27.0 °F - 18.0 °F 69% 30.43 in 10.0 mi Calm Calm - N/A   Clear
9:53 PM 25.0 °F - 18.0 °F 75% 30.41 in 9.0 mi Calm Calm - N/A   Clear
10:53 PM 23.0 °F - 17.1 °F 78% 30.39 in 8.0 mi Calm Calm - N/A   Clear
11:53 PM 23.0 °F - 17.1 °F 78% 30.37 in 9.0 mi Calm Calm - N/A   Clear